Wetterdaten: Samstag, 15.01.2022
Datum Zeit Außen Temp. Server Temp. +20m Feuchte Feuchte +20m Luftdruck Regen Wind Richtung Richtung Sonnenschein Helligkeit Solar Taupunkt
15.01.2022 00:00 2,5 °C 5,3 °C 2,2 °C 86 % 92 % 1033,5 hPa 0,05 l/m² 0,0 km/h (0 Bft) NW 325 ° 0 min 0 lux 0 W/m² 0,4 °C
15.01.2022 00:16 2,6 °C 5,3 °C 2,3 °C 86 % 92 % 1033,4 hPa 0,05 l/m² 0,0 km/h (0 Bft) NW 325 ° 0 min 0 lux 0 W/m² 0,5 °C
15.01.2022 00:30 2,6 °C 5,3 °C 2,3 °C 86 % 92 % 1033,4 hPa 0,00 l/m² 0,0 km/h (0 Bft) NW 325 ° 0 min 0 lux 0 W/m² 0,5 °C
15.01.2022 00:45 2,6 °C 5,4 °C 2,3 °C 86 % 92 % 1033,4 hPa 0,00 l/m² 0,0 km/h (0 Bft) NW 325 ° 0 min 0 lux 0 W/m² 0,5 °C
15.01.2022 01:00 2,6 °C 5,4 °C 2,3 °C 86 % 92 % 1033,4 hPa 0,05 l/m² 0,0 km/h (0 Bft) NW 325 ° 0 min 0 lux 0 W/m² 0,5 °C
15.01.2022 01:15 2,7 °C 5,4 °C 2,3 °C 86 % 92 % 1033,4 hPa 0,00 l/m² 0,0 km/h (0 Bft) NW 325 ° 0 min 0 lux 0 W/m² 0,6 °C
15.01.2022 01:30 2,7 °C 5,4 °C 2,3 °C 86 % 92 % 1033,4 hPa 0,00 l/m² 0,0 km/h (0 Bft) NW 325 ° 0 min 0 lux 0 W/m² 0,6 °C
15.01.2022 01:45 2,7 °C 5,5 °C 2,4 °C 86 % 92 % 1033,4 hPa 0,00 l/m² 0,0 km/h (0 Bft) NW 325 ° 0 min 0 lux 0 W/m² 0,6 °C
15.01.2022 02:00 2,6 °C 5,5 °C 2,3 °C 86 % 92 % 1033,4 hPa 0,00 l/m² 3,9 km/h (1 Bft) NO±67.5° 45 ° 0 min 0 lux 0 W/m² 0,5 °C
15.01.2022 02:15 2,5 °C 5,5 °C 2,1 °C 86 % 92 % 1033,5 hPa 0,00 l/m² 4,6 km/h (1 Bft) O 90 ° 0 min 0 lux 0 W/m² 0,4 °C
15.01.2022 02:30 2,5 °C 5,5 °C 2,1 °C 86 % 92 % 1033,5 hPa 0,00 l/m² 0,0 km/h (0 Bft) O 90 ° 0 min 0 lux 0 W/m² 0,4 °C
15.01.2022 02:45 2,5 °C 5,5 °C 2,1 °C 86 % 92 % 1033,5 hPa 0,00 l/m² 0,0 km/h (0 Bft) O 90 ° 0 min 0 lux 0 W/m² 0,4 °C
15.01.2022 03:00 2,5 °C 5,5 °C 2,1 °C 86 % 92 % 1033,5 hPa 0,00 l/m² 0,0 km/h (0 Bft) O 90 ° 0 min 0 lux 0 W/m² 0,4 °C
15.01.2022 03:15 2,4 °C 5,5 °C 2,0 °C 86 % 92 % 1033,5 hPa 0,00 l/m² 3,2 km/h (1 Bft) O 90 ° 0 min 0 lux 0 W/m² 0,3 °C
15.01.2022 03:30 2,4 °C 5,5 °C 2,0 °C 86 % 92 % 1032,4 hPa 0,00 l/m² 3,4 km/h (1 Bft) O 80 ° 0 min 0 lux 0 W/m² 0,3 °C
15.01.2022 03:45 2,5 °C 5,5 °C 2,1 °C 86 % 92 % 1032,4 hPa 0,00 l/m² 0,0 km/h (0 Bft) O 80 ° 0 min 0 lux 0 W/m² 0,4 °C
15.01.2022 04:00 2,4 °C 5,5 °C 1,9 °C 86 % 92 % 1032,4 hPa 0,00 l/m² 4,0 km/h (1 Bft) O 80 ° 0 min 0 lux 0 W/m² 0,3 °C
15.01.2022 04:15 2,4 °C 5,5 °C 2,1 °C 86 % 92 % 1032,4 hPa 0,00 l/m² 0,0 km/h (0 Bft) O 90 ° 0 min 0 lux 0 W/m² 0,3 °C
15.01.2022 04:30 2,4 °C 5,5 °C 1,9 °C 87 % 92 % 1032,4 hPa 0,00 l/m² 5,0 km/h (1 Bft) O 90 ° 0 min 0 lux 0 W/m² 0,5 °C
15.01.2022 04:45 2,4 °C 5,6 °C 2,0 °C 87 % 92 % 1032,4 hPa 0,00 l/m² 9,0 km/h (2 Bft) O 80 ° 0 min 0 lux 0 W/m² 0,5 °C
15.01.2022 05:00 2,4 °C 5,6 °C 2,0 °C 87 % 92 % 1032,4 hPa 0,00 l/m² 3,7 km/h (1 Bft) O 95 ° 0 min 0 lux 0 W/m² 0,5 °C
15.01.2022 05:15 2,4 °C 5,6 °C 2,0 °C 87 % 92 % 1032,4 hPa 0,00 l/m² 4,5 km/h (1 Bft) O 95 ° 0 min 0 lux 0 W/m² 0,5 °C
15.01.2022 05:30 2,4 °C 5,6 °C 2,0 °C 87 % 92 % 1032,4 hPa 0,00 l/m² 3,3 km/h (1 Bft) O 85 ° 0 min 0 lux 0 W/m² 0,5 °C
15.01.2022 05:45 2,4 °C 5,6 °C 2,0 °C 87 % 92 % 1032,4 hPa 0,00 l/m² 5,2 km/h (1 Bft) O 90 ° 0 min 0 lux 0 W/m² 0,5 °C
15.01.2022 06:00 2,4 °C 5,6 °C 2,0 °C 87 % 92 % 1031,4 hPa 0,00 l/m² 6,5 km/h (2 Bft) O 95 ° 0 min 0 lux 0 W/m² 0,5 °C
15.01.2022 06:15 2,4 °C 5,6 °C 2,0 °C 87 % 92 % 1031,4 hPa 0,00 l/m² 2,7 km/h (1 Bft) O 95 ° 0 min 0 lux 0 W/m² 0,5 °C
15.01.2022 06:30 2,4 °C 5,6 °C 1,9 °C 87 % 92 % 1031,4 hPa 0,00 l/m² 4,4 km/h (1 Bft) O 95 ° 0 min 0 lux 0 W/m² 0,5 °C
15.01.2022 06:45 2,4 °C 5,6 °C 2,0 °C 87 % 92 % 1031,4 hPa 0,05 l/m² 3,3 km/h (1 Bft) O 90 ° 0 min 0 lux 0 W/m² 0,5 °C
15.01.2022 07:00 2,4 °C 5,6 °C 2,0 °C 87 % 92 % 1031,4 hPa 0,00 l/m² 0,0 km/h (0 Bft) O 90 ° 0 min 0 lux 0 W/m² 0,5 °C
15.01.2022 07:15 2,4 °C 5,6 °C 1,9 °C 87 % 92 % 1032,4 hPa 0,00 l/m² 5,0 km/h (1 Bft) O 90 ° 0 min 0 lux 0 W/m² 0,5 °C
15.01.2022 07:30 2,3 °C 5,6 °C 1,9 °C 87 % 92 % 1031,4 hPa 0,00 l/m² 5,4 km/h (1 Bft) O 85 ° 0 min 0 lux 0 W/m² 0,4 °C
15.01.2022 07:45 2,4 °C 5,6 °C 1,9 °C 87 % 92 % 1031,4 hPa 0,00 l/m² 0,0 km/h (0 Bft) O 95 ° 0 min 0 lux 0 W/m² 0,5 °C
15.01.2022 07:45 2,4 °C 5,6 °C 1,9 °C 87 % 92 % 1031,4 hPa 0,00 l/m² 0,0 km/h (0 Bft) O 95 ° 0 min 0 lux 0 W/m² 0,5 °C
15.01.2022 08:00 2,3 °C 5,6 °C 1,9 °C 87 % 92 % 1031,4 hPa 0,00 l/m² 3,0 km/h (1 Bft) O 95 ° 0 min 0 lux 0 W/m² 0,4 °C
15.01.2022 08:15 2,4 °C 5,6 °C 1,9 °C 87 % 92 % 1031,4 hPa 0,00 l/m² 0,0 km/h (0 Bft) O 95 ° 0 min 94 lux 0 W/m² 0,5 °C
15.01.2022 08:30 2,4 °C 5,6 °C 2,0 °C 87 % 92 % 1031,4 hPa 0,00 l/m² 0,3 km/h (0 Bft) O 95 ° 0 min 247 lux 2 W/m² 0,5 °C
15.01.2022 08:45 2,4 °C 5,6 °C 1,9 °C 87 % 92 % 1031,4 hPa 0,00 l/m² 0,0 km/h (0 Bft) O 95 ° 0 min 541 lux 4 W/m² 0,5 °C
15.01.2022 09:00 2,4 °C 5,7 °C 1,8 °C 87 % 92 % 1031,4 hPa 0,00 l/m² 4,6 km/h (1 Bft) O 95 ° 0 min 623 lux 4 W/m² 0,5 °C
15.01.2022 09:15 2,4 °C 5,7 °C 2,0 °C 87 % 92 % 1031,4 hPa 0,00 l/m² 5,7 km/h (1 Bft) O 95 ° 0 min 1,28 klux 8 W/m² 0,5 °C
15.01.2022 09:30 2,6 °C 5,7 °C 2,1 °C 87 % 92 % 1031,4 hPa 0,00 l/m² 8,6 km/h (2 Bft) O 100 ° 0 min 1,85 klux 12 W/m² 0,7 °C
15.01.2022 09:45 2,6 °C 5,7 °C 2,3 °C 87 % 92 % 1031,4 hPa 0,00 l/m² 5,3 km/h (1 Bft) O 95 ° 0 min 3,19 klux 21 W/m² 0,7 °C
15.01.2022 10:00 2,9 °C 5,7 °C 2,6 °C 87 % 92 % 1031,3 hPa 0,00 l/m² 4,3 km/h (1 Bft) O 100 ° 0 min 3,74 klux 24 W/m² 1,0 °C
15.01.2022 10:15 3,1 °C 5,7 °C 2,9 °C 86 % 92 % 1031,3 hPa 0,00 l/m² 0,3 km/h (0 Bft) O 95 ° 0 min 4,04 klux 26 W/m² 1,0 °C
15.01.2022 10:30 3,3 °C 5,7 °C 3,1 °C 86 % 92 % 1031,3 hPa 0,00 l/m² 4,3 km/h (1 Bft) S±67.5° 190 ° 0 min 4,75 klux 31 W/m² 1,2 °C
15.01.2022 10:45 3,3 °C 5,8 °C 3,1 °C 86 % 92 % 1031,3 hPa 0,00 l/m² 3,0 km/h (1 Bft) S-SW 195 ° 0 min 4,24 klux 28 W/m² 1,2 °C
15.01.2022 11:00 3,2 °C 5,8 °C 3,1 °C 86 % 92 % 1031,3 hPa 0,00 l/m² 4,9 km/h (1 Bft) S±22.5° 190 ° 0 min 3,84 klux 25 W/m² 1,1 °C
15.01.2022 11:15 3,4 °C 5,8 °C 3,1 °C 86 % 92 % 1031,3 hPa 0,00 l/m² 3,3 km/h (1 Bft) S-SW 200 ° 0 min 4,54 klux 30 W/m² 1,3 °C
15.01.2022 11:30 3,4 °C 5,9 °C 3,3 °C 86 % 92 % 1031,3 hPa 0,00 l/m² 2,7 km/h (1 Bft) S-SW 200 ° 0 min 5,25 klux 34 W/m² 1,3 °C
15.01.2022 11:45 3,6 °C 5,9 °C 3,6 °C 87 % 92 % 1031,3 hPa 0,00 l/m² 0,3 km/h (0 Bft) S-SW 200 ° 0 min 5,41 klux 35 W/m² 1,6 °C
15.01.2022 12:00 3,7 °C 5,9 °C 3,8 °C 87 % 92 % 1031,3 hPa 0,00 l/m² 0,0 km/h (0 Bft) S-SW 200 ° 0 min 6,23 klux 41 W/m² 1,7 °C
15.01.2022 12:15 4,0 °C 6,0 °C 3,8 °C 87 % 92 % 1031,2 hPa 0,00 l/m² 0,2 km/h (0 Bft) S-SW 200 ° 0 min 7,49 klux 49 W/m² 2,0 °C
15.01.2022 12:30 4,0 °C 6,1 °C 3,7 °C 87 % 92 % 1030,2 hPa 0,00 l/m² 5,7 km/h (1 Bft) S-SW±22.5 205 ° 0 min 8,53 klux 56 W/m² 2,0 °C
15.01.2022 12:45 4,0 °C 6,1 °C 3,7 °C 86 % 92 % 1030,2 hPa 0,00 l/m² 6,8 km/h (2 Bft) O-SO±22.5 115 ° 0 min 8,82 klux 57 W/m² 1,9 °C
15.01.2022 13:00 4,3 °C 6,2 °C 4,0 °C 86 % 92 % 1030,2 hPa 0,00 l/m² 5,2 km/h (1 Bft) SO±22.5° 125 ° 0 min 8,28 klux 54 W/m² 2,2 °C
15.01.2022 13:15 4,1 °C 6,3 °C 3,7 °C 86 % 92 % 1030,2 hPa 0,00 l/m² 6,7 km/h (2 Bft) S-SO±22.5 155 ° 0 min 8,16 klux 53 W/m² 2,0 °C
15.01.2022 13:30 4,1 °C 6,3 °C 3,8 °C 87 % 92 % 1030,2 hPa 0,00 l/m² 5,9 km/h (2 Bft) S±22.5° 170 ° 0 min 6,84 klux 45 W/m² 2,1 °C
15.01.2022 13:45 4,1 °C 6,4 °C 3,6 °C 88 % 92 % 1030,2 hPa 0,00 l/m² 7,2 km/h (2 Bft) SW±22.5° 220 ° 0 min 5,83 klux 38 W/m² 2,3 °C
15.01.2022 14:00 4,1 °C 6,4 °C 3,7 °C 89 % 92 % 1030,2 hPa 0,00 l/m² 9,0 km/h (2 Bft) S-SW±22.5 205 ° 0 min 5,84 klux 38 W/m² 2,5 °C
15.01.2022 14:15 4,0 °C 6,4 °C 3,9 °C 88 % 92 % 1029,2 hPa 0,00 l/m² 9,4 km/h (2 Bft) S±45° 175 ° 0 min 5,81 klux 38 W/m² 2,2 °C
15.01.2022 14:30 4,0 °C 6,5 °C 4,1 °C 87 % 91 % 1029,2 hPa 0,00 l/m² 7,9 km/h (2 Bft) S-SO±22.5 150 ° 0 min 4,30 klux 28 W/m² 2,0 °C
15.01.2022 14:45 4,0 °C 6,5 °C 4,1 °C 85 % 82 % 1029,2 hPa 0,00 l/m² 13,1 km/h (3 Bft) SO±45° 140 ° 0 min 4,38 klux 29 W/m² 1,7 °C
15.01.2022 15:00 4,0 °C 6,5 °C 4,0 °C 84 % 76 % 1029,2 hPa 0,00 l/m² 9,3 km/h (2 Bft) S-SW±45° 195 ° 0 min 4,83 klux 31 W/m² 1,5 °C
15.01.2022 15:15 4,0 °C 6,6 °C 4,0 °C 85 % 71 % 1029,2 hPa 0,00 l/m² 11,3 km/h (2 Bft) S-SW±45° 200 ° 0 min 3,90 klux 25 W/m² 1,7 °C
15.01.2022 15:30 3,9 °C 6,5 °C 3,9 °C 84 % 68 % 1029,2 hPa 0,00 l/m² 11,4 km/h (2 Bft) S±22.5° 180 ° 0 min 2,72 klux 18 W/m² 1,4 °C
15.01.2022 15:45 3,8 °C 6,6 °C 3,8 °C 84 % 66 % 1029,2 hPa 0,00 l/m² 8,9 km/h (2 Bft) S-SW±45° 205 ° 0 min 1,87 klux 12 W/m² 1,4 °C
15.01.2022 16:00 3,7 °C 6,5 °C 3,7 °C 86 % 66 % 1028,2 hPa 0,00 l/m² 7,0 km/h (2 Bft) S 190 ° 0 min 1,25 klux 8 W/m² 1,6 °C
15.01.2022 16:15 3,6 °C 6,5 °C 3,6 °C 87 % 66 % 1028,2 hPa 0,00 l/m² 9,0 km/h (2 Bft) S±45° 185 ° 0 min 966 lux 6 W/m² 1,6 °C
15.01.2022 16:30 3,4 °C 6,6 °C 3,5 °C 86 % 64 % 1028,2 hPa 0,00 l/m² 8,5 km/h (2 Bft) SO±22.5° 145 ° 0 min 853 lux 6 W/m² 1,3 °C
15.01.2022 16:45 3,4 °C 6,6 °C 3,3 °C 86 % 63 % 1028,2 hPa 0,00 l/m² 8,9 km/h (2 Bft) S±45° 170 ° 0 min 365 lux 0 W/m² 1,3 °C
15.01.2022 17:00 3,2 °C 6,5 °C 3,2 °C 86 % 63 % 1028,2 hPa 0,00 l/m² 7,4 km/h (2 Bft) S±45° 175 ° 0 min 104 lux 0 W/m² 1,1 °C
15.01.2022 17:15 3,2 °C 6,6 °C 3,1 °C 86 % 63 % 1028,2 hPa 0,00 l/m² 5,8 km/h (2 Bft) S-SW 195 ° 0 min 20 lux 0 W/m² 1,1 °C
15.01.2022 17:30 3,0 °C 6,5 °C 2,9 °C 87 % 63 % 1028,2 hPa 0,00 l/m² 8,9 km/h (2 Bft) S-SW±22.5 200 ° 0 min 0 lux 0 W/m² 1,1 °C
15.01.2022 17:45 2,9 °C 6,5 °C 2,8 °C 87 % 63 % 1028,2 hPa 0,00 l/m² 5,7 km/h (1 Bft) S±22.5° 170 ° 0 min 0 lux 0 W/m² 1,0 °C
15.01.2022 18:00 2,9 °C 6,5 °C 2,8 °C 87 % 62 % 1028,2 hPa 0,00 l/m² 8,3 km/h (2 Bft) S-SO±45° 160 ° 0 min 0 lux 0 W/m² 1,0 °C
15.01.2022 18:15 2,8 °C 6,5 °C 2,6 °C 87 % 62 % 1028,3 hPa 0,00 l/m² 6,8 km/h (2 Bft) S±22.5° 170 ° 0 min 0 lux 0 W/m² 0,9 °C
15.01.2022 18:30 2,6 °C 6,4 °C 2,5 °C 86 % 60 % 1027,3 hPa 0,00 l/m² 12,1 km/h (2 Bft) SO±22.5° 145 ° 0 min 0 lux 0 W/m² 0,5 °C
15.01.2022 18:45 2,4 °C 6,4 °C 2,3 °C 86 % 60 % 1027,3 hPa 0,00 l/m² 9,7 km/h (2 Bft) S-SO±45° 155 ° 0 min 0 lux 0 W/m² 0,3 °C
15.01.2022 19:00 2,2 °C 6,4 °C 2,2 °C 87 % 61 % 1027,3 hPa 0,00 l/m² 7,6 km/h (2 Bft) S±45° 170 ° 0 min 0 lux 0 W/m² 0,3 °C
15.01.2022 19:15 2,2 °C 6,3 °C 2,0 °C 87 % 61 % 1027,3 hPa 0,00 l/m² 7,2 km/h (2 Bft) S-SO±45° 165 ° 0 min 0 lux 0 W/m² 0,3 °C
15.01.2022 19:30 2,1 °C 6,3 °C 2,0 °C 87 % 62 % 1027,3 hPa 0,00 l/m² 7,4 km/h (2 Bft) S±22.5° 170 ° 0 min 0 lux 0 W/m² 0,2 °C
15.01.2022 19:45 2,0 °C 6,3 °C 2,0 °C 88 % 62 % 1027,3 hPa 0,00 l/m² 6,3 km/h (2 Bft) S-SO±22.5 165 ° 0 min 0 lux 0 W/m² 0,2 °C
15.01.2022 20:00 2,1 °C 6,2 °C 2,0 °C 88 % 62 % 1027,3 hPa 0,00 l/m² 5,6 km/h (1 Bft) S±22.5° 170 ° 0 min 0 lux 0 W/m² 0,3 °C
15.01.2022 20:15 2,1 °C 6,2 °C 2,0 °C 88 % 62 % 1027,3 hPa 0,00 l/m² 5,7 km/h (1 Bft) S±22.5° 185 ° 0 min 0 lux 0 W/m² 0,3 °C
15.01.2022 20:30 2,2 °C 6,2 °C 2,1 °C 88 % 62 % 1028,3 hPa 0,00 l/m² 6,8 km/h (2 Bft) S±22.5° 185 ° 0 min 0 lux 0 W/m² 0,4 °C
15.01.2022 20:45 2,1 °C 6,2 °C 2,1 °C 88 % 62 % 1026,3 hPa 0,00 l/m² 13,0 km/h (3 Bft) S-SO±22.5 160 ° 0 min 0 lux 0 W/m² 0,3 °C
15.01.2022 21:00 2,2 °C 6,2 °C 2,1 °C 87 % 61 % 1027,3 hPa 0,00 l/m² 8,9 km/h (2 Bft) S±45° 170 ° 0 min 0 lux 0 W/m² 0,3 °C
15.01.2022 21:15 2,2 °C 6,2 °C 2,1 °C 87 % 60 % 1026,3 hPa 0,00 l/m² 8,9 km/h (2 Bft) S-SO±22.5 150 ° 0 min 0 lux 0 W/m² 0,3 °C
15.01.2022 21:30 2,1 °C 6,2 °C 2,1 °C 87 % 60 % 1026,3 hPa 0,00 l/m² 7,6 km/h (2 Bft) S±45° 175 ° 0 min 0 lux 0 W/m² 0,2 °C
15.01.2022 21:45 2,1 °C 6,2 °C 2,1 °C 87 % 60 % 1027,3 hPa 0,00 l/m² 8,0 km/h (2 Bft) S±45° 175 ° 0 min 0 lux 0 W/m² 0,2 °C
15.01.2022 22:00 2,1 °C 6,2 °C 2,1 °C 88 % 61 % 1027,3 hPa 0,00 l/m² 8,9 km/h (2 Bft) SO±22.5° 140 ° 0 min 0 lux 0 W/m² 0,3 °C
15.01.2022 22:15 2,0 °C 6,2 °C 2,0 °C 88 % 61 % 1026,3 hPa 0,00 l/m² 13,1 km/h (3 Bft) S-SO±45° 150 ° 0 min 0 lux 0 W/m² 0,2 °C
15.01.2022 22:30 2,0 °C 6,2 °C 2,0 °C 88 % 62 % 1026,3 hPa 0,00 l/m² 9,3 km/h (2 Bft) S±22.5° 185 ° 0 min 0 lux 0 W/m² 0,2 °C
15.01.2022 22:45 2,0 °C 6,2 °C 1,9 °C 88 % 62 % 1026,3 hPa 0,00 l/m² 8,1 km/h (2 Bft) S-SW±22.5 205 ° 0 min 0 lux 0 W/m² 0,2 °C
15.01.2022 23:00 1,9 °C 6,2 °C 1,7 °C 89 % 62 % 1026,3 hPa 0,00 l/m² 9,0 km/h (2 Bft) S-SW 210 ° 0 min 0 lux 0 W/m² 0,3 °C
15.01.2022 23:15 1,8 °C 6,2 °C 1,7 °C 89 % 63 % 1026,3 hPa 0,00 l/m² 5,5 km/h (1 Bft) S-SW±22.5 205 ° 0 min 0 lux 0 W/m² 0,2 °C
15.01.2022 23:30 1,7 °C 6,2 °C 1,7 °C 88 % 63 % 1026,3 hPa 0,00 l/m² 7,6 km/h (2 Bft) S±22.5° 180 ° 0 min 0 lux 0 W/m² -0,1 °C
15.01.2022 23:45 1,6 °C 6,2 °C 1,6 °C 88 % 64 % 1026,3 hPa 0,00 l/m² 9,6 km/h (2 Bft) S±45° 175 ° 0 min 0 lux 0 W/m² -0,2 °C
_ Min-Zeit 23:45 00:00 23:45 15:00 18:30 21:15 - 00:00 - - - - - 23:45
Minimum _ 1,6 °C 5,3 °C 1,6 °C 84 % 60 % 1026,3 hPa - 0,0 km/h (0 Bft) - - - - - -0,2 °C
_ Max-Zeit 13:00 15:15 14:30 14:00 00:00 03:15 00:00 14:45 - - 00:00 12:45 12:45 14:00
Maximum _ 4,3 °C 6,6 °C 4,1 °C 89 % 92 % 1033,5 hPa 0,05 l/m² 13,1 km/h
SO (3 Bft)
- - 0 min 8,82 klux 57 W/m² 2,5 °C
Durchschnitt _ 2,8 °C 6,0 °C 2,5 °C 87 % 81 % 1030,2 hPa #0,22 l/m² 5,2 km/h (1 Bft) O - #0 min. 1,45 klux 28 W/m² 0,8 °C